Weather History for Toledo, OH

Change the Weather History Date:

Tuesday, February 26, 2013

  Actual Average Record
Temperature  
Mean Temperature 35 °F 31 °F  
Max Temperature 41 °F 39 °F 71 °F (2000)
Min Temperature 29 °F 23 °F -8 °F (1963)
Degree Days  
Heating Degree Days 30 34  
Month to date heating degree days 1000 961  
Since 1 July heating degree days 4392 4510  
Cooling Degree Days 0 0  
Month to date cooling degree days 0 0  
Year to date cooling degree days 0 0  
Moisture  
Dew Point 28 °F    
Average Humidity 84    
Maximum Humidity 96    
Minimum Humidity 72    
Precipitation  
Precipitation 1.28 in 0.08 in 1.28 in (2013)
Month to date precipitation 2.36 1.91  
Year to date precipitation 5.98 3.96  
Snow  
Snow T in 0.30 in - ()
Month to date snowfall 10.5 8.9  
Since 1 July snowfall 20.6 30.0  
Snow Depth 0.00 in    
Sea Level Pressure  
Sea Level Pressure 29.71 in    
Wind  
Wind Speed 17 mph (ENE)    
Max Wind Speed 26 mph    
Max Gust Speed 38 mph    
Visibility 5 miles    
Events Rain , Snow    
T = Trace of Precipitation, MM = Missing Value Source: NWS Daily Summary

Daily Weather History Graph

Daily Weather History Graph

Search for Another Location

Airport:

Trip Planner

Search our weather history database for the weather conditions in past years. The results will help you decide how hot, cold, wet, or windy it might be!

Date:

Astronomy

Feb. 26, 2013 Rise Set
Actual Time 7:14 AM EST 6:22 PM EST
Civil Twilight 6:46 AM EST 6:50 PM EST
Nautical Twilight 6:14 AM EST 7:22 PM EST
Astronomical Twilight 5:42 AM EST 7:54 PM EST
Moon 7:39 PM EST (2/26) 7:14 AM EST (2/26)
Length of Visible Light 12h 04m
Length of Day
11h 08m
Full, 99% of the Moon is Illuminated
Feb 26
Full
Mar 4
Last Quarter
Mar 11
New
Mar 19
First Quarter
Mar 27
Full

Hourly Weather History & Observations

Time (EST) Temp. Windchill Dew Point Humidity Pressure Visibility Wind Dir Wind Speed Gust Speed Precip Events Conditions
12:52 AM 28.9 °F 19.2 °F 21.9 °F 75% 30.06 in 10.0 mi ENE 11.5 mph - N/A   Clear
1:52 AM 28.9 °F 18.6 °F 21.9 °F 75% 30.04 in 10.0 mi ENE 12.7 mph - N/A   Clear
2:52 AM 28.9 °F 19.2 °F 23.0 °F 78% 30.04 in 10.0 mi ENE 11.5 mph - N/A   Clear
3:52 AM 28.9 °F 18.2 °F 23.0 °F 78% 29.99 in 10.0 mi ENE 13.8 mph - N/A   Clear
4:52 AM 30.0 °F 18.3 °F 23.0 °F 75% 29.94 in 10.0 mi ENE 17.3 mph 24.2 mph N/A   Clear
5:52 AM 30.0 °F 18.7 °F 24.1 °F 79% 29.95 in 10.0 mi East 16.1 mph 23.0 mph N/A   Clear
6:52 AM 30.0 °F 18.3 °F 24.1 °F 79% 29.92 in 10.0 mi East 17.3 mph - N/A   Clear
7:52 AM 30.9 °F 19.1 °F 24.1 °F 76% 29.89 in 10.0 mi ENE 18.4 mph - N/A   Clear
8:52 AM 32.0 °F 21.2 °F 25.0 °F 75% 29.88 in 10.0 mi ENE 16.1 mph 28.8 mph N/A   Partly Cloudy
9:52 AM 32.0 °F 18.9 °F 25.0 °F 75% 29.83 in 10.0 mi ENE 24.2 mph 28.8 mph N/A   Partly Cloudy
10:52 AM 32.0 °F 20.5 °F 26.1 °F 79% 29.82 in 6.0 mi East 18.4 mph 28.8 mph 0.00 in   Overcast
11:52 AM 32.0 °F 20.1 °F 28.0 °F 85% 29.76 in 3.0 mi ENE 19.6 mph 25.3 mph 0.05 in Rain Light Freezing Rain
12:28 PM 32.0 °F 20.1 °F 28.4 °F 87% 29.71 in 2.0 mi East 19.6 mph 32.2 mph 0.04 in Rain Light Freezing Rain
12:34 PM 32.0 °F 19.5 °F 28.4 °F 87% 29.70 in 2.0 mi ENE 21.9 mph 31.1 mph 0.05 in Rain Light Rain
12:46 PM 32.0 °F 19.5 °F 28.4 °F 87% 29.67 in 3.0 mi East 21.9 mph 34.5 mph 0.09 in Rain Light Rain
12:47 PM 32.0 °F 18.9 °F 28.0 °F 85% 29.70 in 3.0 mi ENE 24.2 mph 34.5 mph 0.09 in Rain Light Rain
1:04 PM 30.2 °F 17.8 °F 28.4 °F 93% 29.65 in 2.5 mi ENE 19.6 mph 34.5 mph 0.04 in Rain Light Freezing Rain
1:12 PM 30.2 °F 17.4 °F 28.4 °F 93% 29.64 in 1.8 mi ENE 20.7 mph - 0.06 in Rain Light Freezing Rain
1:52 PM 30.9 °F 17.8 °F 28.9 °F 92% 29.65 in 1.2 mi ENE 23.0 mph 33.4 mph 0.19 in Rain Light Freezing Rain
2:27 PM 32.0 °F 20.8 °F 28.4 °F 87% 29.61 in 1.8 mi East 17.3 mph 31.1 mph 0.20 in Rain Light Freezing Rain
2:52 PM 32.0 °F 21.6 °F 30.0 °F 92% 29.63 in 1.5 mi East 15.0 mph 29.9 mph 0.29 in Rain Light Freezing Rain
3:10 PM 32.0 °F 20.5 °F 30.2 °F 93% 29.60 in 2.0 mi ENE 18.4 mph 25.3 mph 0.07 in Rain Light Freezing Rain
3:19 PM 32.0 °F 19.8 °F 30.2 °F 93% 29.59 in 2.5 mi ENE 20.7 mph 29.9 mph 0.08 in   Overcast
3:27 PM 32.0 °F 19.8 °F 30.2 °F 93% 29.58 in 3.0 mi ENE 20.7 mph 32.2 mph 0.10 in   Overcast
3:52 PM 32.0 °F 19.8 °F 30.0 °F 92% 29.60 in 3.0 mi East 20.7 mph 31.1 mph 0.13 in   Overcast
4:16 PM 32.0 °F 19.2 °F 30.2 °F 93% 29.56 in 2.0 mi East 23.0 mph 33.4 mph 0.03 in Snow Light Snow
4:33 PM 32.0 °F 19.2 °F 30.2 °F 93% 29.55 in 3.0 mi East 23.0 mph 32.2 mph 0.07 in   Overcast
4:52 PM 32.0 °F 20.1 °F 30.0 °F 92% 29.57 in 3.0 mi East 19.6 mph 28.8 mph 0.10 in   Overcast
5:30 PM 33.8 °F 22.8 °F 30.2 °F 87% 29.52 in 2.5 mi East 18.4 mph 27.6 mph 0.03 in Rain Rain
5:52 PM 33.1 °F 22.2 °F 30.9 °F 92% 29.55 in 2.5 mi East 17.3 mph 24.2 mph 0.05 in Rain Rain
6:16 PM 33.8 °F 22.8 °F 30.2 °F 87% 29.52 in 4.0 mi East 18.4 mph 24.2 mph 0.05 in Rain Rain
6:52 PM 33.1 °F 21.5 °F 32.0 °F 96% 29.54 in 5.0 mi East 19.6 mph 24.2 mph 0.14 in Rain Light Rain
7:52 PM 34.0 °F 24.6 °F 32.0 °F 92% 29.53 in 6.0 mi East 13.8 mph - 0.04 in Rain Rain
8:52 PM 33.1 °F 23.4 °F 32.0 °F 96% 29.51 in 3.0 mi ENE 13.8 mph - 0.08 in Rain Light Rain
9:52 PM 34.0 °F 24.2 °F 32.0 °F 92% 29.49 in 5.0 mi East 15.0 mph - 0.03 in Rain Light Rain
10:52 PM 34.0 °F 25.0 °F 32.0 °F 92% 29.47 in 7.0 mi East 12.7 mph - 0.02 in Rain Light Rain
11:52 PM 33.8 °F 25.8 °F 33.8 °F 100% 29.43 in 5.0 mi East 10.4 mph - N/A Rain Light Rain